Theta_e
290 292 293 295 297 298 300 301 303 306 308 310 317 336 337 338 337 338 338 338 337 335 332 329 331 330 331 332 329 327 325 324
290 291 292 294 296 296 298 299 301 304 303 304 309 311 333 335 336 337 338 337 336 334 333 329 329 326 327 330 329 325 323 325
287 289 291 293 294 295 297 298 300 302 302 302 307 310 317 336 336 336 338 336 335 333 330 329 328 326 325 326 328 325 323 323
286 287 289 291 292 293 295 297 299 300 301 303 305 311 323 332 333 334 336 335 334 332 332 329 328 327 325 325 327 326 320 322
285 286 288 289 290 293 295 297 298 299 300 299 300 303 306 316 331 334 334 335 332 332 331 329 328 328 327 327 327 326 324 320
285 286 287 289 291 291 293 295 297 299 299 298 299 301 304 308 319 332 333 333 333 331 330 330 329 329 331 326 327 326 324 323
286 287 288 288 290 291 292 293 295 296 297 298 298 299 302 304 311 324 330 333 331 330 329 328 330 331 331 329 327 328 327 326
285 286 286 287 288 289 291 291 292 294 296 297 297 299 301 302 307 313 321 330 329 329 329 325 328 332 330 330 329 329 330 330
285 286 286 287 288 289 290 290 291 293 294 296 297 298 300 302 303 307 312 324 333 332 328 328 326 329 332 332 330 331 331 332
284 286 287 288 288 289 289 290 290 292 293 295 297 297 299 299 301 305 310 314 330 334 330 327 326 325 329 330 329 329 329 329
283 285 286 287 288 289 290 290 290 291 293 293 296 297 298 299 300 301 304 308 313 331 330 328 327 325 327 328 329 329 327 326
283 284 285 286 288 289 289 290 290 291 292 293 295 296 297 298 299 300 301 305 309 318 331 330 326 325 326 326 326 326 326 326
283 284 285 285 286 288 288 289 289 290 291 293 294 295 296 296 297 298 300 301 306 311 322 328 327 325 324 323 323 323 320 321
283 284 283 284 285 286 287 288 289 290 291 291 293 293 294 294 296 298 298 299 301 306 314 318 325 325 324 323 324 323 322 322
282 283 283 284 285 286 286 288 289 290 290 290 291 292 294 293 295 296 297 298 299 300 305 312 315 315 322 324 323 323 323 323
281 282 283 283 284 285 286 288 289 289 289 289 290 292 293 294 293 295 296 296 297 298 301 306 310 316 319 322 324 324 323 322
281 282 282 282 283 284 285 287 288 289 289 289 290 291 292 293 292 293 293 294 295 296 297 301 305 308 300 302 313 323 325 327
281 281 282 282 284 284 285 286 288 288 288 289 289 290 290 292 292 292 292 292 294 295 296 299 300 306 294 294 299 320 323 324
281 282 282 283 284 285 285 286 286 287 287 288 289 289 289 291 291 290 291 293 293 294 295 296 299 300 292 292 291 310 322 324
Wind_Speed
23 24 22 21 20 20 20 18 20 19 11 11 10 6 8 8 7 8 12 10 11 7 11 12 12 11 10 9 11 10 10 9
20 21 21 21 21 22 22 21 22 16 12 12 7 6 6 6 8 12 11 12 12 13 8 11 11 11 12 11 9 13 8 10
22 23 22 21 21 22 21 20 21 15 11 10 6 8 10 8 6 9 11 13 14 11 11 11 15 11 14 15 7 10 6 11
21 22 23 21 22 22 20 20 20 16 17 11 10 9 6 5 7 9 11 10 10 14 14 12 13 13 12 15 13 18 12 9
20 21 22 23 21 19 20 20 19 17 17 14 15 8 9 6 8 9 7 11 14 15 14 14 14 11 13 10 16 8 13 13
20 21 20 21 21 20 19 21 19 19 16 14 11 12 8 10 12 8 11 11 15 15 14 15 15 11 14 15 14 10 9 9
19 19 19 20 20 20 20 22 20 20 19 15 15 15 13 11 11 7 7 8 7 12 15 17 14 13 13 13 15 12 10 10
20 22 21 20 22 22 19 22 21 19 18 18 15 14 13 13 13 8 10 7 7 9 13 13 11 13 14 14 16 16 17 14
20 21 19 20 21 21 22 22 21 19 18 19 14 15 9 9 10 10 8 10 11 12 12 13 17 16 14 15 12 12 14 14
20 20 19 19 20 20 21 21 21 20 17 16 16 13 14 12 14 11 9 11 10 14 13 14 15 14 14 14 12 15 15 14
19 18 19 19 19 18 18 20 20 19 19 15 13 15 14 13 11 13 13 13 14 10 12 13 14 17 17 16 14 14 15 12
18 18 18 19 18 18 18 18 19 19 18 17 15 15 15 13 12 12 13 13 13 11 12 14 12 13 15 15 15 16 17 15
16 16 18 19 19 18 18 18 17 18 17 18 18 15 15 14 13 13 13 12 13 13 11 13 14 15 13 17 18 14 15 17
16 16 17 18 18 18 18 18 17 17 17 18 18 19 15 15 15 15 13 13 13 12 12 6 6 8 14 14 17 19 19 19
15 15 18 18 17 18 18 18 17 16 16 18 18 18 18 15 15 15 14 14 12 12 10 10 4 3 9 13 17 18 19 18
15 15 16 19 18 18 17 17 17 17 16 17 18 18 18 17 15 15 14 13 12 12 13 10 7 9 10 13 17 19 19 20
15 16 18 18 19 17 17 17 17 16 16 17 18 18 18 18 16 16 16 15 12 12 12 12 11 8 14 14 13 14 18 17
14 16 17 17 17 17 17 17 16 16 16 17 18 18 18 18 16 15 16 16 14 11 11 12 12 10 23 23 12 9 16 18
13 14 16 17 17 16 17 16 15 16 17 17 17 18 18 18 16 15 16 14 14 12 12 11 10 8 21 21 24 15 16 13
Wind_Direction
350 351 352 353 353 354 356 355 353 350 341 338 327 220 216 203 200 190 195 196 190 188 179 174 173 175 166 172 172 156 165 153
355 353 354 354 357 356 357 356 355 352 355 346 338 328 260 200 207 199 188 198 189 196 182 172 183 189 186 191 167 153 161 150
359 359 357 358 357 357 354 355 355 353 347 332 311 300 289 212 192 206 198 204 190 182 170 171 181 193 190 197 188 167 157 168
3 0 3 356 358 357 353 354 353 353 346 337 328 309 313 204 190 204 203 188 185 178 169 168 182 180 187 194 196 186 160 175
6 4 2 3 358 355 355 355 353 353 350 345 339 330 328 325 255 205 194 190 189 179 178 171 172 191 194 191 203 191 154 168
4 4 2 1 2 0 356 357 355 353 352 347 338 326 323 318 299 190 195 195 191 186 186 178 182 188 199 195 201 163 167 163
3 6 5 3 1 2 358 359 356 353 350 348 340 331 335 327 322 297 199 202 190 200 188 184 184 190 189 191 198 198 181 186
3 5 3 2 1 360 358 358 356 351 349 346 340 337 333 331 324 319 310 195 194 196 194 185 189 188 187 186 192 198 191 196
357 356 1 359 358 358 357 358 356 351 348 342 341 340 337 326 329 317 298 289 208 187 194 195 194 203 187 188 193 195 196 201
355 354 355 354 354 354 354 353 356 355 347 341 342 341 338 333 335 326 332 304 284 207 188 200 202 203 199 189 194 197 197 200
358 357 356 352 349 349 349 352 354 353 353 344 340 339 340 336 336 341 333 325 319 236 190 198 204 200 198 195 198 199 188 197
351 353 353 352 351 350 349 350 351 353 351 350 341 344 341 341 341 342 340 318 318 316 214 202 208 207 197 201 197 196 189 191
347 346 349 350 350 351 350 347 348 351 347 349 350 347 346 351 342 336 328 329 318 324 297 221 217 209 205 200 202 202 198 202
343 345 348 347 347 346 347 345 345 346 348 346 349 353 349 352 338 340 329 336 328 326 318 303 234 211 214 204 206 209 208 210
338 341 343 343 344 344 343 342 342 344 349 348 346 351 352 344 343 335 336 337 329 331 323 313 237 190 255 235 222 211 215 211
334 338 339 342 342 342 343 342 341 343 350 350 345 345 351 354 343 339 331 334 335 331 323 315 303 265 228 231 223 219 216 215
329 333 341 340 341 341 340 341 341 345 351 352 344 344 349 354 347 340 340 337 339 340 336 327 320 316 332 265 217 236 221 209
327 332 339 337 338 341 341 339 341 346 348 352 346 345 349 350 348 339 342 343 343 345 344 335 330 331 0 346 262 231 246 221
323 330 336 336 335 340 337 341 342 345 347 347 345 344 349 350 349 342 343 343 345 353 353 346 353 2 8 348 336 245 224 228